TITAN 3C TRANSTAGE DEB, 26525

Orbit data source: Space-Track

TITAN 3C TRANSTAGE DEB, 26525 is space debris in HEO originally from a launch on Tue, 21 Dec 1965 UTC launched from the Air Force Eastern Test Range (AFETR). Debris objects in space refer to the collection of defunct objects orbiting the Earth. Examples of debris include non-operational satellites, rocket bodies, and fragments generated from explosions, collisions, or faulty payload assembly.

Loading next visibility...
Identifier
26525, 1965-108AL
Orbit
HEO
Last TLE update
5 days ago
Origin
Manufacturer
Unknown
Mission
Spacecraft
Bus & Motor
Unknown
Mass
Unknown
Launch date (UTC)
1965-12-21 (59 years ago)
Launch vehicle
Unknown
Launch site
Air Force Eastern Test Range (AFETR)
Object type
Payload
Rocket body
Debris
Shape & HBR
Unknown
Radar Cross Section
Medium (>0.1 m² and <1 m²)

Expand to show TLE details & history

TLE from 5 days ago
0 TITAN 3C TRANSTAGE DEB
1 26525U 65108AL  25123.92279591  .00001933  00000-0  14173-1 0  9990
2 26525  26.6318 345.7892 6718398  78.0617 353.8254  2.83080764259517
Epoch: 2025-05-03T22:08Z
Definitive object data (Epoch: 2025-05-03T22:08:49.566Z)
Latitude
16.37122°
Longitude
-172.83001°
Altitude
1,223.185 km
Speed
9.274 km/s
True Right ascension
01h 25m 44s
True Declination
16° 17' 03"
Sunlit
Object was in daylight at TLE epoch
Visualization TLE readout
Latitude
-18.55223°
Longitude
11.05113°
Altitude
18,625.852 km
Speed
3.606 km/s
Apparent Right ascension
13h 18m 23s
Apparent Declination
-31° 54' 17"
Sunlit
Object is in daylight
Visualization observer readout
Local Sidereal Time
15:13:40
Azimuth
204.876° SW
Elevation
13.376°
Doppler factor
1
Orbital elements
Apogee altitude
28,918.256 km
Perigee altitude
550.081 km
Semi-major axis
21,112.306 km
Eccentricity
0.6718398
Inclination
26.6318°
RAAN
345.7892°
Arg. of periapsis
78.0617°
True anomaly
320.26113°
Mean anomaly
353.8254°
Eccentric anomaly
341.80694°
Mean motion
0.70752 °/min
BSTAR
0.014173
Orbital period
508.82 mins
Loading maneuver chart data...
Loading SW <> Apogee altitude chart data...

TITAN 3C TRANSTAGE DEB Visibility forecast

Observer location: undefined°, undefined°

Span
Click to sort rows by Start time (UTC) header in descending order
Start Az.
Max El. time (UTC)
Max El. Az.
Max El.
End time (UTC)
End Az.
152 mins2025-05-09 07:04:44.400Z204.865° SW2025-05-09 07:10:44.400Z203.932° SW13.022°2025-05-09 09:36:44.400Z201.983° SSW
56 mins2025-05-09 12:37:44.400Z199.273° SSW2025-05-09 13:20:44.400Z176.722° S13.503°2025-05-09 13:33:44.400Z151.873° SSE
8 mins2025-05-09 22:30:44.400Z194.97° SSW2025-05-09 22:32:44.400Z166.525° S18.588°2025-05-09 22:38:44.400Z130.203° SE
|